�������l�o���
Date,Time,MP-1(��Sv/h),MP-2(��Sv/h),MP-3(��Sv/h),MP-4(��Sv/h),MP-5(��Sv/h),MP-6(��Sv/h),MP-7(��Sv/h),MP-8(��Sv/h),����,����(m/s),���J
2016/12/22,00:00,1.094,1.833,1.193,2.081,1.430,0.568,1.036,0.960,��쓌,0.9,��
2016/12/22,00:10,1.095,1.831,1.193,2.081,1.430,0.566,1.036,0.962,��쐼,2.3,��
2016/12/22,00:20,1.097,1.831,1.191,2.080,1.428,0.567,1.035,0.959,��,4.8,��
2016/12/22,00:30,1.095,1.832,1.192,2.083,1.430,0.567,1.036,0.961,��,5.0,��
2016/12/22,00:40,1.094,1.831,1.195,2.080,1.431,0.568,1.036,0.962,��쐼,5.3,��
2016/12/22,00:50,1.094,1.834,1.191,2.081,1.431,0.567,1.036,0.962,��쐼,5.8,��
2016/12/22,01:00,1.094,1.834,1.191,2.079,1.429,0.568,1.035,0.958,��쐼,5.2,��
2016/12/22,01:10,1.091,1.831,1.193,2.079,1.429,0.567,1.036,0.961,��,5.3,��
2016/12/22,01:20,1.093,1.833,1.192,2.080,1.429,0.568,1.036,0.961,��,5.2,��
2016/12/22,01:30,1.093,1.833,1.194,2.081,1.428,0.566,1.033,0.960,��,4.1,��
2016/12/22,01:40,1.091,1.835,1.192,2.079,1.428,0.567,1.035,0.960,��,3.7,��
2016/12/22,01:50,1.091,1.833,1.191,2.081,1.429,0.568,1.036,0.962,��,4.6,��
2016/12/22,02:00,1.091,1.831,1.191,2.080,1.429,0.566,1.036,0.961,��,3.5,��
2016/12/22,02:10,1.090,1.832,1.191,2.080,1.427,0.567,1.035,0.961,��쓌,2.6,��
2016/12/22,02:20,1.092,1.831,1.191,2.081,1.429,0.567,1.034,0.959,�쓌,3.3,��
2016/12/22,02:30,1.092,1.834,1.192,2.079,1.427,0.567,1.034,0.959,�쓌,2.5,��
2016/12/22,02:40,1.094,1.831,1.191,2.082,1.428,0.567,1.035,0.960,�쓌,2.3,��
2016/12/22,02:50,1.090,1.831,1.193,2.081,1.428,0.567,1.036,0.959,���쓌,1.9,��
2016/12/22,03:00,1.091,1.832,1.193,2.081,1.430,0.567,1.034,0.959,���k��,2.3,��
2016/12/22,03:10,1.091,1.831,1.193,2.080,1.425,0.566,1.035,0.961,���k��,2.2,��
2016/12/22,03:20,1.092,1.831,1.190,2.080,1.427,0.567,1.036,0.961,��,2.3,��
2016/12/22,03:30,1.091,1.833,1.190,2.082,1.430,0.566,1.035,0.958,���k��,1.9,��
2016/12/22,03:40,1.090,1.830,1.192,2.081,1.428,0.566,1.035,0.960,���k��,1.4,��
2016/12/22,03:50,1.092,1.832,1.195,2.082,1.427,0.566,1.035,0.961,�k�k��,1.4,��
2016/12/22,04:00,1.092,1.831,1.192,2.081,1.429,0.566,1.036,0.961,���k��,1.4,��
2016/12/22,04:10,1.091,1.833,1.193,2.082,1.428,0.565,1.036,0.960,�k,0.6,��
2016/12/22,04:20,1.094,1.831,1.193,2.080,1.430,0.565,1.036,0.961,�k,0.9,��
2016/12/22,04:30,1.092,1.833,1.195,2.081,1.427,0.566,1.035,0.962,�k�k��,2.0,��
2016/12/22,04:40,1.091,1.830,1.193,2.082,1.427,0.566,1.037,0.961,�k�k��,0.6,��
2016/12/22,04:50,1.093,1.832,1.192,2.082,1.427,0.567,1.036,0.960,���쓌,0.9,��
2016/12/22,05:00,1.092,1.828,1.193,2.083,1.429,0.566,1.034,0.959,�쓌,0.6,��
2016/12/22,05:10,1.092,1.835,1.192,2.083,1.428,0.568,1.035,0.961,-,CALM,��
2016/12/22,05:20,1.090,1.830,1.192,2.081,1.429,0.568,1.035,0.962,��쐼,2.0,��
2016/12/22,05:30,1.091,1.830,1.194,2.079,1.430,0.566,1.037,0.959,���쐼,1.2,��
2016/12/22,05:40,1.091,1.833,1.194,2.084,1.427,0.567,1.037,0.960,��,1.7,��
2016/12/22,05:50,1.091,1.831,1.192,2.083,1.427,0.567,1.036,0.961,��쓌,2.0,��
2016/12/22,06:00,1.092,1.831,1.194,2.080,1.425,0.566,1.036,0.962,��,2.8,��
2016/12/22,06:10,1.092,1.832,1.192,2.081,1.427,0.569,1.036,0.960,��쓌,2.3,��
2016/12/22,06:20,1.094,1.832,1.190,2.079,1.429,0.568,1.036,0.962,��쓌,4.4,��
2016/12/22,06:30,1.092,1.832,1.191,2.082,1.426,0.567,1.037,0.961,��,5.3,��
2016/12/22,06:40,1.093,1.834,1.192,2.079,1.427,0.567,1.037,0.961,��쓌,2.6,��
2016/12/22,06:50,1.091,1.831,1.192,2.080,1.427,0.568,1.038,0.960,��,4.0,��
2016/12/22,07:00,1.093,1.832,1.193,2.081,1.427,0.566,1.036,0.961,��,3.3,��
2016/12/22,07:10,1.093,1.833,1.192,2.078,1.428,0.568,1.037,0.961,��쓌,3.4,��
2016/12/22,07:20,1.093,1.834,1.193,2.082,1.429,0.568,1.039,0.962,��쓌,3.3,��
2016/12/22,07:30,1.093,1.831,1.191,2.085,1.428,0.567,1.039,0.959,��쓌,4.7,��
2016/12/22,07:40,1.093,1.835,1.194,2.085,1.430,0.568,1.038,0.960,��쓌,4.7,��
2016/12/22,07:50,1.093,1.832,1.191,2.084,1.428,0.567,1.038,0.962,��,6.4,��
2016/12/22,08:00,1.096,1.831,1.195,2.081,1.426,0.568,1.038,0.961,��,8.0,��
2016/12/22,08:10,1.098,1.829,1.192,2.085,1.428,0.568,1.040,0.963,��,8.7,��
2016/12/22,08:20,1.097,1.830,1.195,2.084,1.428,0.570,1.040,0.964,��,8.0,��
2016/12/22,08:30,1.098,1.834,1.196,2.081,1.431,0.569,1.039,0.963,��,9.1,��
2016/12/22,08:40,1.101,1.835,1.196,2.087,1.431,0.570,1.040,0.962,��,10.3,��
2016/12/22,08:50,1.099,1.835,1.197,2.086,1.428,0.571,1.040,0.963,��,10.9,��
2016/12/22,09:00,1.102,1.836,1.197,2.088,1.428,0.569,1.041,0.962,��,10.8,��
2016/12/22,09:10,1.100,1.836,1.199,2.087,1.432,0.571,1.038,0.964,��,9.7,��
2016/12/22,09:20,1.101,1.836,1.196,2.088,1.432,0.571,1.039,0.966,��,9.4,��
2016/12/22,09:30,1.103,1.837,1.197,2.088,1.434,0.571,1.039,0.964,��,9.3,��
2016/12/22,09:40,1.104,1.835,1.199,2.086,1.432,0.571,1.039,0.965,��,7.4,��
2016/12/22,09:50,1.104,1.839,1.199,2.088,1.433,0.568,1.039,0.964,��,8.7,��
2016/12/22,10:00,1.102,1.837,1.199,2.088,1.432,0.571,1.038,0.965,��,8.7,��
2016/12/22,10:10,1.102,1.838,1.200,2.090,1.428,0.570,1.039,0.965,��쐼,9.5,��
2016/12/22,10:20,1.101,1.836,1.203,2.092,1.427,0.569,1.040,0.965,��,12.4,��
2016/12/22,10:30,1.102,1.834,1.200,2.090,1.431,0.571,1.039,0.963,��쐼,9.3,��
2016/12/22,10:40,1.100,1.838,1.201,2.090,1.432,0.570,1.040,0.963,��,11.4,��
2016/12/22,10:50,1.103,1.834,1.201,2.094,1.431,0.571,1.043,0.962,��,11.6,��
2016/12/22,11:00,1.105,1.834,1.199,2.090,1.435,0.571,1.041,0.965,��,13.5,��
2016/12/22,11:10,1.106,1.838,1.203,2.089,1.435,0.571,1.042,0.965,��,13.9,��
2016/12/22,11:20,1.104,1.838,1.201,2.094,1.437,0.574,1.041,0.963,��,15.0,��
2016/12/22,11:30,1.104,1.839,1.200,2.095,1.437,0.572,1.042,0.964,��,14.6,��
2016/12/22,11:40,1.102,1.837,1.200,2.093,1.432,0.573,1.042,0.963,��,13.3,��
2016/12/22,11:50,1.107,1.838,1.199,2.093,1.432,0.574,1.041,0.964,��,14.6,��
2016/12/22,12:00,1.108,1.837,1.202,2.091,1.434,0.572,1.044,0.963,��쐼,11.7,��
2016/12/22,12:10,1.105,1.839,1.202,2.094,1.436,0.570,1.043,0.964,��,13.8,��
2016/12/22,12:20,1.106,1.839,1.204,2.095,1.439,0.573,1.041,0.964,��,12.4,��
2016/12/22,12:30,1.110,1.834,1.200,2.094,1.437,0.574,1.044,0.961,��,12.8,��
2016/12/22,12:40,1.105,1.838,1.202,2.096,1.436,0.572,1.044,0.964,��,12.5,��
2016/12/22,12:50,1.107,1.838,1.201,2.095,1.435,0.573,1.044,0.963,��쐼,10.5,��
2016/12/22,13:00,1.102,1.834,1.201,2.095,1.438,0.572,1.044,0.963,��,10.3,��
2016/12/22,13:10,1.107,1.837,1.199,2.095,1.437,0.574,1.043,0.962,��,10.2,��
2016/12/22,13:20,1.106,1.838,1.201,2.097,1.437,0.574,1.044,0.965,��,11.3,��
2016/12/22,13:30,1.107,1.839,1.199,2.096,1.437,0.575,1.043,0.963,��,11.0,��
2016/12/22,13:40,1.109,1.835,1.202,2.096,1.434,0.573,1.044,0.964,��,12.4,��
2016/12/22,13:50,1.109,1.835,1.204,2.094,1.440,0.574,1.045,0.963,��,13.0,��
2016/12/22,14:00,1.108,1.833,1.202,2.097,1.436,0.573,1.042,0.964,��,13.9,��
2016/12/22,14:10,1.109,1.837,1.202,2.098,1.438,0.574,1.043,0.964,��,13.9,��
2016/12/22,14:20,1.108,1.841,1.206,2.100,1.438,0.572,1.044,0.963,��,15.5,��
2016/12/22,14:30,1.108,1.840,1.201,2.098,1.436,0.573,1.042,0.964,��쐼,9.8,��
2016/12/22,14:40,1.109,1.840,1.202,2.098,1.441,0.573,1.045,0.963,��,11.0,��
2016/12/22,14:50,1.108,1.839,1.200,2.097,1.438,0.573,1.044,0.966,��,9.4,��
2016/12/22,15:00,1.111,1.839,1.201,2.097,1.436,0.574,1.043,0.963,��,11.9,��
2016/12/22,15:10,1.109,1.839,1.205,2.099,1.437,0.573,1.044,0.964,��,13.0,��
2016/12/22,15:20,1.110,1.839,1.203,2.095,1.439,0.572,1.044,0.965,��,10.0,��
2016/12/22,15:30,1.110,1.840,1.204,2.098,1.436,0.573,1.044,0.967,��,9.9,��
2016/12/22,15:40,1.111,1.839,1.203,2.098,1.440,0.573,1.044,0.965,��,9.9,��
2016/12/22,15:50,1.110,1.841,1.204,2.097,1.438,0.574,1.045,0.963,��,10.2,��
2016/12/22,16:00,1.111,1.840,1.205,2.098,1.436,0.575,1.045,0.966,��,9.1,��
2016/12/22,16:10,1.110,1.846,1.205,2.097,1.438,0.575,1.044,0.967,��,9.8,��
2016/12/22,16:20,1.111,1.847,1.207,2.096,1.439,0.576,1.044,0.967,��,8.1,��
2016/12/22,16:30,1.109,1.843,1.203,2.095,1.436,0.575,1.045,0.966,��,8.9,��
2016/12/22,16:40,1.109,1.847,1.205,2.094,1.439,0.575,1.042,0.967,��,9.4,��
2016/12/22,16:50,1.110,1.846,1.206,2.096,1.438,0.576,1.043,0.968,��,10.6,��
2016/12/22,17:00,1.108,1.845,1.206,2.095,1.442,0.575,1.045,0.967,��,8.6,��
2016/12/22,17:10,1.110,1.845,1.206,2.098,1.439,0.575,1.043,0.969,��,9.9,��
2016/12/22,17:20,1.110,1.844,1.204,2.097,1.439,0.575,1.044,0.967,��,8.1,��
2016/12/22,17:30,1.112,1.845,1.206,2.097,1.438,0.576,1.045,0.965,��,8.7,��
2016/12/22,17:40,1.110,1.849,1.206,2.095,1.437,0.576,1.044,0.968,��,9.9,��
2016/12/22,17:50,1.111,1.847,1.207,2.099,1.442,0.575,1.044,0.968,��,8.0,��
2016/12/22,18:00,1.109,1.847,1.208,2.095,1.440,0.576,1.045,0.968,��,10.7,��
2016/12/22,18:10,1.110,1.846,1.207,2.098,1.441,0.574,1.044,0.968,��,9.5,��
2016/12/22,18:20,1.111,1.845,1.207,2.097,1.442,0.576,1.044,0.969,��,10.3,��
2016/12/22,18:30,1.111,1.844,1.208,2.099,1.441,0.577,1.044,0.969,��,8.9,��
2016/12/22,18:40,1.111,1.848,1.208,2.097,1.438,0.575,1.045,0.966,��,10.0,��
2016/12/22,18:50,1.113,1.845,1.207,2.097,1.442,0.575,1.044,0.968,��,10.2,��
2016/12/22,19:00,1.109,1.843,1.207,2.096,1.439,0.576,1.043,0.969,��,10.3,��
2016/12/22,19:10,1.110,1.844,1.207,2.098,1.443,0.576,1.045,0.969,��,9.9,��
2016/12/22,19:20,1.113,1.846,1.208,2.099,1.441,0.576,1.044,0.968,��,11.6,��
2016/12/22,19:30,1.111,1.846,1.206,2.098,1.437,0.575,1.042,0.967,��,11.6,��
2016/12/22,19:40,1.112,1.845,1.205,2.096,1.442,0.576,1.046,0.968,��,12.7,��
2016/12/22,19:50,1.110,1.842,1.207,2.097,1.441,0.573,1.045,0.967,��쓌,14.1,��
2016/12/22,20:00,1.114,1.843,1.205,2.097,1.441,0.575,1.043,0.965,��쓌,15.2,��
2016/12/22,20:10,1.110,1.843,1.206,2.097,1.439,0.576,1.044,0.964,��쓌,14.1,��
2016/12/22,20:20,1.112,1.841,1.206,2.098,1.438,0.574,1.045,0.968,��쓌,12.8,��
2016/12/22,20:30,1.110,1.845,1.207,2.100,1.441,0.575,1.045,0.965,��쓌,13.5,��
2016/12/22,20:40,1.112,1.842,1.204,2.097,1.440,0.574,1.045,0.968,��,9.3,��
2016/12/22,20:50,1.110,1.844,1.208,2.096,1.440,0.576,1.045,0.966,��,8.2,��
2016/12/22,21:00,1.112,1.844,1.207,2.099,1.439,0.577,1.045,0.966,��,8.9,��
2016/12/22,21:10,1.113,1.846,1.207,2.099,1.439,0.577,1.045,0.969,��,7.0,��
2016/12/22,21:20,1.116,1.848,1.207,2.099,1.441,0.578,1.045,0.966,��,9.4,��
2016/12/22,21:30,1.114,1.846,1.210,2.099,1.441,0.578,1.045,0.968,��,9.1,��
2016/12/22,21:40,1.117,1.848,1.209,2.099,1.438,0.577,1.044,0.967,��,9.3,��
2016/12/22,21:50,1.114,1.849,1.210,2.101,1.442,0.576,1.046,0.968,��,7.9,��
2016/12/22,22:00,1.115,1.847,1.209,2.097,1.441,0.578,1.045,0.968,��,9.3,��
2016/12/22,22:10,1.117,1.847,1.208,2.099,1.443,0.577,1.045,0.967,��쐼,7.4,��
2016/12/22,22:20,1.116,1.847,1.209,2.100,1.442,0.578,1.044,0.967,��,8.3,��
2016/12/22,22:30,1.113,1.847,1.206,2.100,1.442,0.577,1.047,0.967,��,8.4,��
2016/12/22,22:40,1.117,1.847,1.207,2.101,1.441,0.578,1.047,0.967,��,9.6,��
2016/12/22,22:50,1.116,1.845,1.208,2.101,1.442,0.578,1.047,0.969,��쐼,7.9,��
2016/12/22,23:00,1.114,1.847,1.210,2.103,1.441,0.578,1.046,0.968,��,11.6,��
2016/12/22,23:10,1.115,1.848,1.210,2.101,1.440,0.577,1.048,0.967,��,11.6,��
2016/12/22,23:20,1.117,1.842,1.209,2.100,1.444,0.579,1.044,0.968,��,10.5,��
2016/12/22,23:30,1.115,1.847,1.205,2.101,1.442,0.577,1.045,0.969,��,12.4,��
2016/12/22,23:40,1.116,1.843,1.208,2.098,1.443,0.577,1.047,0.967,��,10.2,��
2016/12/22,23:50,1.114,1.843,1.206,2.102,1.438,0.576,1.045,0.967,��,11.0,��
